LHA1114 EDDM-EDDN

Flight info

Callsign LHA1114
Flight time 0h 27m
Altitude 16000
Route EVIVA4Q/08L EVIVA Y103 UNKUL L610 UPALA UPAL1T
Aircraft DH8D/M-SDE1E2FGIJ1RWYZ/S

Departure

Time 2026-05-04 18:12
Airport Munich Airport (EDDM)

Arrival

Time 2026-05-04 18:40
Airport Nuremberg Airport (EDDN)
Time Latitude Longitude Altitude Speed Heading
2026-05-04 17:33 48.35609 11.77640 1482 ft 0 kts 263°
2026-05-04 17:52 48.35609 11.77639 1481 ft 0 kts 263°
2026-05-04 17:52 48.35610 11.77649 1481 ft 2 kts 264°
2026-05-04 17:53 48.35612 11.77671 1481 ft 2 kts 264°
2026-05-04 17:53 48.35613 11.77693 1481 ft 1 kts 264°
2026-05-04 17:53 48.35611 11.77708 1481 ft 1 kts 321°
2026-05-04 17:53 48.35602 11.77713 1481 ft 1 kts 354°
2026-05-04 17:54 48.35601 11.77713 1481 ft 0 kts 354°
2026-05-04 17:57 48.35628 11.77709 1481 ft 6 kts 354°
2026-05-04 17:58 48.35688 11.77697 1481 ft 9 kts 352°
2026-05-04 17:58 48.35751 11.77697 1480 ft 8 kts 25°
2026-05-04 17:58 48.35774 11.77772 1480 ft 8 kts 82°
2026-05-04 17:58 48.35804 11.77854 1480 ft 9 kts 30°
2026-05-04 17:59 48.35813 11.77858 1480 ft 0 kts 11°
2026-05-04 18:01 48.35817 11.77859 1480 ft 3 kts
2026-05-04 18:01 48.35868 11.77851 1479 ft 10 kts 353°
2026-05-04 18:01 48.35948 11.77846 1479 ft 11 kts 21°
2026-05-04 18:02 48.35996 11.78048 1478 ft 10 kts 82°
2026-05-04 18:02 48.36006 11.78156 1478 ft 10 kts 83°
2026-05-04 18:02 48.36015 11.78274 1478 ft 12 kts 85°
2026-05-04 18:02 48.36024 11.78420 1477 ft 15 kts 78°
2026-05-04 18:03 48.36111 11.78498 1476 ft 16 kts 32°
2026-05-04 18:03 48.36151 11.78660 1476 ft 18 kts 83°
2026-05-04 18:03 48.36167 11.78854 1475 ft 19 kts 84°
2026-05-04 18:03 48.36184 11.79063 1474 ft 20 kts 82°
2026-05-04 18:04 48.36201 11.79281 1473 ft 21 kts 84°
2026-05-04 18:04 48.36218 11.79509 1471 ft 22 kts 83°
2026-05-04 18:04 48.36255 11.79983 1469 ft 23 kts 83°
2026-05-04 18:05 48.36273 11.80222 1468 ft 23 kts 83°
2026-05-04 18:05 48.36292 11.80468 1466 ft 23 kts 84°
2026-05-04 18:05 48.36311 11.80714 1465 ft 23 kts 83°
2026-05-04 18:05 48.36330 11.80961 1463 ft 24 kts 83°
2026-05-04 18:06 48.36368 11.81460 1461 ft 23 kts 83°
2026-05-04 18:06 48.36387 11.81703 1460 ft 21 kts 84°
2026-05-04 18:06 48.36398 11.81879 1460 ft 12 kts 93°
2026-05-04 18:07 48.36408 11.81984 1460 ft 8 kts 43°
2026-05-04 18:07 48.36430 11.81999 1460 ft 0 kts
2026-05-04 18:07 48.36443 11.82001 1459 ft 6 kts
2026-05-04 18:08 48.36481 11.81997 1459 ft 0 kts 352°
2026-05-04 18:09 48.36532 11.81987 1459 ft 10 kts 353°
2026-05-04 18:09 48.36564 11.81982 1459 ft 0 kts 354°
2026-05-04 18:10 48.36596 11.81977 1459 ft 12 kts 354°
2026-05-04 18:10 48.36668 11.81914 1459 ft 11 kts 285°
2026-05-04 18:10 48.36669 11.81892 1459 ft 0 kts 267°
2026-05-04 18:11 48.36665 11.81803 1460 ft 39 kts 264°
2026-05-04 18:11 48.36594 11.80924 1462 ft 123 kts 262°
2026-05-04 18:11 48.36514 11.79455 1604 ft 151 kts 269°
2026-05-04 18:12 48.36441 11.77821 1854 ft 170 kts 265°
2026-05-04 18:12 48.36319 11.76023 2265 ft 175 kts 265°
2026-05-04 18:12 48.36172 11.74197 2727 ft 179 kts 266°
2026-05-04 18:12 48.36027 11.72321 3200 ft 182 kts 267°
2026-05-04 18:13 48.35890 11.70427 3698 ft 183 kts 267°
2026-05-04 18:13 48.35763 11.68544 4195 ft 184 kts 268°
2026-05-04 18:13 48.37065 11.65809 4945 ft 178 kts 349°
2026-05-04 18:14 48.38278 11.65419 5226 ft 181 kts 351°
2026-05-04 18:14 48.39516 11.65039 5559 ft 183 kts 351°
2026-05-04 18:14 48.40770 11.64660 5857 ft 185 kts 351°
2026-05-04 18:15 48.43335 11.63892 6464 ft 189 kts 350°
2026-05-04 18:15 48.45737 11.63153 6771 ft 162 kts 350°
2026-05-04 18:15 48.46837 11.62835 6868 ft 164 kts 351°
2026-05-04 18:16 48.48000 11.62501 6977 ft 173 kts 351°
2026-05-04 18:16 48.49240 11.62524 6931 ft 191 kts 26°
2026-05-04 18:16 48.50231 11.63857 7008 ft 195 kts 54°
2026-05-04 18:17 48.52635 11.65708 7477 ft 206 kts 12°
2026-05-04 18:17 48.54042 11.66136 7913 ft 208 kts 13°
2026-05-04 18:17 48.56897 11.67045 8786 ft 212 kts 12°
2026-05-04 18:18 48.58345 11.67522 9205 ft 215 kts 12°
2026-05-04 18:18 48.59807 11.68011 9614 ft 219 kts 12°
2026-05-04 18:18 48.61288 11.68512 10056 ft 220 kts 12°
2026-05-04 18:18 48.62797 11.69027 10490 ft 222 kts 12°
2026-05-04 18:19 48.65839 11.69527 11244 ft 221 kts 338°
2026-05-04 18:19 48.67202 11.68553 11609 ft 219 kts 328°
2026-05-04 18:19 48.68555 11.67455 12018 ft 220 kts 328°
2026-05-04 18:20 48.69893 11.66355 12408 ft 221 kts 327°
2026-05-04 18:20 48.71231 11.65244 12773 ft 222 kts 327°
2026-05-04 18:20 48.72585 11.64114 13142 ft 223 kts 326°
2026-05-04 18:20 48.73945 11.62972 13507 ft 223 kts 326°
2026-05-04 18:21 48.75306 11.61826 13847 ft 224 kts 326°
2026-05-04 18:21 48.76653 11.60689 14202 ft 224 kts 327°
2026-05-04 18:21 48.78017 11.59533 14530 ft 225 kts 327°
2026-05-04 18:21 48.79390 11.58368 14852 ft 226 kts 326°
2026-05-04 18:22 48.80757 11.57206 15157 ft 227 kts 327°
2026-05-04 18:22 48.82121 11.56045 15463 ft 228 kts 326°
2026-05-04 18:22 48.83514 11.54858 15757 ft 229 kts 327°
2026-05-04 18:22 48.84912 11.53664 15901 ft 238 kts 327°
2026-05-04 18:23 48.86390 11.52396 15965 ft 251 kts 327°
2026-05-04 18:23 48.87965 11.51044 16009 ft 265 kts 327°
2026-05-04 18:23 48.89601 11.49639 15997 ft 280 kts 327°
2026-05-04 18:23 48.91352 11.48136 15979 ft 293 kts 327°
2026-05-04 18:24 48.93142 11.46598 15989 ft 303 kts 327°
2026-05-04 18:24 48.95015 11.44989 15989 ft 311 kts 327°
2026-05-04 18:24 48.96902 11.43369 15973 ft 309 kts 327°
2026-05-04 18:24 48.98751 11.41779 15954 ft 304 kts 327°
2026-05-04 18:25 49.00559 11.40219 15614 ft 298 kts 327°
2026-05-04 18:25 49.02359 11.38664 15245 ft 296 kts 327°
2026-05-04 18:25 49.04140 11.37127 14874 ft 296 kts 327°
2026-05-04 18:25 49.05922 11.35589 14515 ft 296 kts 327°
2026-05-04 18:26 49.07711 11.34045 14151 ft 298 kts 326°
2026-05-04 18:26 49.09513 11.32489 13779 ft 300 kts 326°
2026-05-04 18:26 49.11332 11.30918 13415 ft 301 kts 326°
2026-05-04 18:26 49.13159 11.29338 13049 ft 301 kts 327°
2026-05-04 18:27 49.14975 11.27766 12677 ft 302 kts 327°
2026-05-04 18:27 49.16790 11.26194 12314 ft 302 kts 327°
2026-05-04 18:27 49.18610 11.24616 11946 ft 301 kts 327°
2026-05-04 18:27 49.20443 11.23025 11582 ft 301 kts 327°
2026-05-04 18:28 49.22155 11.21275 11213 ft 298 kts 317°
2026-05-04 18:28 49.23706 11.19218 10853 ft 297 kts 315°
2026-05-04 18:28 49.25246 11.17131 10485 ft 297 kts 315°
2026-05-04 18:28 49.26802 11.15019 10120 ft 297 kts 315°
2026-05-04 18:29 49.28372 11.13013 9738 ft 299 kts 323°
2026-05-04 18:29 49.30333 11.11995 9302 ft 301 kts 355°
2026-05-04 18:29 49.32332 11.12650 8937 ft 298 kts 27°
2026-05-04 18:29 49.33804 11.14734 8559 ft 287 kts 59°
2026-05-04 18:30 49.34745 11.20358 7841 ft 265 kts 84°
2026-05-04 18:30 49.34944 11.23131 7468 ft 258 kts 86°
2026-05-04 18:30 49.35068 11.25835 7098 ft 252 kts 88°
2026-05-04 18:31 49.35137 11.28466 6726 ft 246 kts 90°
2026-05-04 18:31 49.35165 11.31076 6354 ft 246 kts 91°
2026-05-04 18:31 49.35159 11.33689 5998 ft 248 kts 91°
2026-05-04 18:31 49.35131 11.36317 5661 ft 247 kts 92°
2026-05-04 18:32 49.35086 11.38940 5537 ft 243 kts 92°
2026-05-04 18:32 49.35029 11.41480 5494 ft 238 kts 92°
2026-05-04 18:32 49.34969 11.44015 5477 ft 233 kts 91°
2026-05-04 18:32 49.35288 11.46414 5329 ft 234 kts 63°
2026-05-04 18:33 49.36358 11.48262 5093 ft 234 kts 33°
2026-05-04 18:33 49.37845 11.49157 4863 ft 232 kts 15°
2026-05-04 18:33 49.39397 11.49775 4624 ft 232 kts 13°
2026-05-04 18:33 49.40991 11.49792 4364 ft 230 kts 345°
2026-05-04 18:34 49.42361 11.48574 4131 ft 229 kts 317°
2026-05-04 18:34 49.43448 11.46858 4017 ft 216 kts 314°
2026-05-04 18:34 49.44456 11.45227 3987 ft 208 kts 314°
2026-05-04 18:34 49.45443 11.43621 3971 ft 206 kts 311°
2026-05-04 18:35 49.46137 11.41753 3967 ft 203 kts 290°
2026-05-04 18:35 49.46492 11.39684 3962 ft 196 kts 284°
2026-05-04 18:35 49.46793 11.37673 3965 ft 192 kts 283°
2026-05-04 18:35 49.47049 11.35658 3964 ft 189 kts 281°
2026-05-04 18:36 49.47268 11.33702 3966 ft 188 kts 281°
2026-05-04 18:36 49.47485 11.31692 3896 ft 194 kts 281°
2026-05-04 18:36 49.47707 11.29566 3655 ft 204 kts 280°
2026-05-04 18:36 49.47916 11.27427 3342 ft 202 kts 281°
2026-05-04 18:37 49.48117 11.25353 3042 ft 193 kts 281°
2026-05-04 18:37 49.48311 11.23389 2811 ft 176 kts 281°
2026-05-04 18:37 49.48483 11.21636 2594 ft 159 kts 282°
2026-05-04 18:37 49.48652 11.20008 2363 ft 151 kts 282°
2026-05-04 18:38 49.48814 11.18444 2164 ft 144 kts 282°
2026-05-04 18:38 49.48968 11.16960 1993 ft 143 kts 281°
2026-05-04 18:38 49.49123 11.15435 1833 ft 145 kts 281°
2026-05-04 18:38 49.49277 11.13883 1644 ft 150 kts 279°
2026-05-04 18:39 49.49434 11.12280 1446 ft 154 kts 281°
2026-05-04 18:39 49.49592 11.10656 1241 ft 153 kts 280°
2026-05-04 18:39 49.49746 11.09072 1052 ft 143 kts 280°
2026-05-04 18:39 49.49859 11.07911 1052 ft 84 kts 278°
2026-05-04 18:40 49.49933 11.07213 1052 ft 35 kts 276°
2026-05-04 18:40 49.49916 11.07022 1052 ft 11 kts 190°
2026-05-04 18:40 49.49841 11.07039 1052 ft 11 kts 161°
2026-05-04 18:40 49.49814 11.07054 1052 ft 0 kts 159°
2026-05-04 18:41 49.49812 11.07055 1052 ft 2 kts 159°
2026-05-04 18:41 49.49770 11.07083 1052 ft 10 kts 146°
2026-05-04 18:42 49.49736 11.07202 1052 ft 14 kts 98°
2026-05-04 18:42 49.49720 11.07376 1052 ft 16 kts 98°
2026-05-04 18:42 49.49704 11.07541 1052 ft 15 kts 99°
2026-05-04 18:42 49.49690 11.07698 1052 ft 14 kts 97°
2026-05-04 18:43 49.49652 11.07818 1052 ft 11 kts 103°
2026-05-04 18:43 49.49641 11.07939 1052 ft 11 kts 97°
2026-05-04 18:43 49.49630 11.08054 1052 ft 0 kts 99°
2026-05-04 18:43 49.49622 11.08061 1052 ft 2 kts 165°
2026-05-04 18:44 49.49611 11.08067 1052 ft 0 kts 166°
2026-05-04 18:44 49.49606 11.08067 1052 ft 0 kts 180°